Volver al catálogo

COSMOS 1627

ActivoMilitarPO
NORAD 15505·PAYLOAD·🇷🇺 Russia

Lanzado Feb 1, 1985 desde Plesetsk Cosmodrome

Loading…

Próximos Pases (próximas 24 horas)

TLE

ActualizadoSource: Space-Track

Época: Sep 14, 2026, 11:25 UTC

1 15505U 85011A   26257.47626228  .00000057  00000-0  43549-4 0  9991
2 15505  82.9255 340.9091 0043316  99.6729 271.7165 13.74607422 87374

Sigue COSMOS 1627 en tiempo real con AllMySat

Download on the App Store